Location: Gradaro
(45.0833°N, 10.8833°E)
Time: 09:34:28
(UTC+00:00)

FENGYUN 1C DEB - Pass Details

Date: 01 July 2021
Orbit: 803 x 830 km, 98.8° (Epoch: 28 July)

Event Time Altitude Azimuth Distance (km) Brightness Sun altitude
Exits shadow 22:28:08 22° 225° (SW) 1,725 ? -20.8°
Maximum altitude 22:30:25 30° 265° (W) 1,438 ? -20.9°
Drops below altitude 10° 22:35:05 10° 325° (NW) 2,422 ? -21.1°
Sets 22:37:45 0° 337° (NNW) 3,364 ? -21.2°
